Vorticity
10 9 11 13 13 12 8 6 5 5 4 5 10 6 7 7 7 5 6 18 14 2 4 5 6 6 5 3 2 4 9 7 9 26 7 15 -1 1 11 5 5 7 9 3 3
11 11 10 13 16 16 14 13 10 7 5 6 6 10 6 8 7 7 15 15 11 2 4 5 7 7 7 2 3 2 1 5 12 24 2 9 4 2 3 10 5 6 9 6 5
9 9 9 11 10 13 15 17 13 10 9 7 6 7 10 7 7 8 16 11 9 3 4 5 6 8 5 3 0 5 -2 4 5 16 6 3 10 0 -2 6 7 11 7 10 5
10 11 10 8 8 8 7 11 18 16 9 9 9 6 6 11 7 9 17 11 7 2 4 4 8 5 3 4 1 1 7 9 6 10 18 -5 20 -7 -7 2 7 11 9 3 4
9 8 11 10 8 10 8 8 6 13 21 7 9 8 7 5 10 8 9 12 5 3 3 4 6 3 6 3 3 14 -0 4 11 7 15 8 -1 40 -9 1 6 11 9 8 7
11 10 8 11 9 6 6 8 10 5 11 20 8 10 8 9 9 8 9 21 5 1 3 3 4 6 4 8 4 -4 15 6 6 23 7 8 12 -3 19 3 2 9 7 7 7
6 13 12 8 11 13 9 9 9 6 5 10 12 9 10 7 8 12 8 15 7 3 3 4 2 2 3 7 5 10 6 -2 5 7 3 1 6 -4 1 3 7 10 9 7 7
9 9 11 11 9 9 10 11 13 10 12 8 11 11 11 6 7 9 8 11 18 6 2 3 3 3 1 4 2 -0 6 -5 16 4 10 -7 22 -8 3 6 3 5 11 13 4
11 10 12 13 13 14 11 10 11 11 10 16 9 9 12 11 9 6 11 6 9 13 3 2 3 2 3 3 2 2 -5 -10 -9 -1 -3 5 4 -10 16 10 1 5 7 9 10
10 14 10 12 12 12 11 12 13 16 10 8 20 7 9 10 12 7 6 8 8 9 13 -2 1 4 2 3 4 7 6 3 10 15 15 5 11 5 2 9 10 4 1 6 7
11 15 12 11 11 12 14 17 16 12 13 10 16 11 10 12 12 12 6 8 6 9 8 16 1 1 5 6 5 4 6 8 13 13 22 -5 -8 2 10 10 8 6 18 5 8
12 15 13 10 9 14 20 14 15 19 10 10 8 16 8 7 12 9 9 5 11 6 10 7 13 9 6 5 3 6 3 4 -2 4 18 20 -8 7 22 -1 10 -4 6 19 6
13 13 11 7 15 26 21 17 21 24 23 15 11 11 14 10 9 11 15 6 8 11 6 14 10 8 8 11 6 4 3 11 3 5 -3 5 28 3 19 -3 -1 -5 1 12 21
15 15 6 13 29 14 17 11 14 19 22 22 15 12 15 13 11 10 7 14 6 10 10 7 11 7 7 7 8 2 3 9 8 6 8 15 -1 3 3 1 5 14 -25 6 10
13 12 5 14 14 7 10 12 12 20 14 19 21 15 11 13 10 13 11 10 9 7 11 9 6 8 7 8 6 6 -2 3 6 3 1 5 5 -1 0 7 7 8 25 8 -0
15 8 5 13 16 8 8 22 5 23 27 13 13 16 18 15 15 11 13 9 9 7 5 10 9 6 8 7 8 8 1 6 6 10 3 4 4 7 1 3 4 8 3 7 7
11 8 6 11 11 11 7 5 10 13 12 10 18 20 22 12 19 13 12 11 9 8 5 6 9 8 7 8 10 7 3 5 -2 3 11 5 2 -4 4 13 10 10 6 3 9
11 9 6 13 9 16 17 8 5 4 13 13 13 11 17 29 10 16 12 14 13 12 11 7 8 10 9 6 8 14 8 3 3 6 -2 4 9 11 12 11 19 8 5 10 4
3 11 6 11 12 6 12 6 6 6 21 18 12 12 12 25 27 18 9 15 12 11 10 9 9 8 9 10 7 8 9 7 6 5 5 7 8 15 9 6 7 9 17 -2 19
4 10 7 11 11 10 13 6 6 6 28 17 12 8 9 19 14 22 20 12 14 11 16 12 7 9 11 12 9 5 11 10 2 4 4 1 6 12 7 9 4 2 -1 1 17
3 12 10 11 11 6 13 8 9 6 8 30 15 4 16 27 15 10 15 20 13 13 15 14 6 10 12 12 10 10 5 9 7 5 2 6 4 5 3 12 -8 5 19 -5 4
-1 13 9 9 14 9 9 11 23 10 10 34 6 6 21 17 9 9 13 0 18 11 12 11 18 14 9 9 12 11 7 7 6 3 6 2 3 9 3 6 18 4 2 5 5
10 12 7 14 16 9 7 13 20 30 12 19 12 -3 13 1 3 8 10 5 16 19 6 13 9 14 12 11 7 8 11 7 6 4 3 5 6 2 6 7 4 4 13 11 8
12 9 5 13 3 0 5 6 14 34 16 7 22 33 -2 11 16 13 12 10 -1 20 6 17 4 13 11 10 6 7 8 11 8 7 7 2 3 3 9 7 -8 15 7 -9 3
10 6 8 4 7 9 6 6 8 25 19 11 17 25 9 -5 5 5 11 5 3 5 26 3 7 7 15 7 12 7 6 7 7 14 9 6 4 2 5 2 5 5 -7 -3 10
6 6 7 7 6 7 7 11 8 18 19 17 7 22 17 23 13 12 3 19 7 -5 14 12 21 9 0 22 6 7 8 9 13 15 10 10 8 4 4 2 3 6 7 6 3
6 5 4 6 7 6 8 11 10 6 19 21 14 7 23 13 25 14 8 3 36 6 8 23 14 8 18 9 18 2 7 7 12 11 15 12 11 10 4 1 -0 5 8 13 19
Height
5844 5843 5842 5842 5841 5841 5842 5844 5846 5847 5849 5850 5851 5853 5854 5856 5858 5858 5858 5863 5866 5872 5876 5878 5882 5884 5886 5889 5890 5893 5893 5893 5893 5893 5895 5897 5901 5903 5903 5902 5905 5906 5911 5911 5912
5842 5840 5838 5837 5836 5836 5837 5837 5839 5841 5843 5845 5847 5848 5850 5852 5854 5856 5859 5860 5865 5870 5874 5877 5881 5882 5884 5888 5890 5894 5894 5895 5895 5896 5896 5899 5902 5904 5904 5904 5905 5906 5911 5912 5914
5840 5838 5835 5834 5832 5832 5831 5832 5833 5834 5836 5839 5841 5844 5846 5848 5850 5853 5855 5858 5863 5867 5873 5877 5880 5882 5884 5887 5890 5893 5895 5896 5896 5897 5897 5900 5902 5902 5904 5905 5907 5908 5910 5913 5915
5837 5835 5833 5830 5829 5828 5827 5827 5827 5829 5830 5832 5835 5837 5841 5844 5848 5849 5852 5855 5861 5866 5871 5875 5880 5882 5883 5886 5889 5893 5894 5896 5896 5898 5899 5900 5902 5903 5905 5906 5908 5911 5912 5913 5916
5834 5831 5828 5827 5825 5824 5823 5823 5823 5823 5824 5827 5829 5831 5835 5839 5843 5846 5849 5853 5859 5864 5868 5872 5877 5879 5882 5884 5886 5891 5894 5895 5896 5898 5899 5901 5901 5904 5906 5907 5909 5911 5913 5915 5917
5829 5826 5823 5821 5819 5818 5817 5817 5817 5818 5819 5820 5824 5827 5829 5834 5838 5842 5845 5849 5855 5860 5865 5869 5872 5875 5880 5883 5885 5891 5892 5895 5896 5898 5899 5901 5903 5904 5907 5908 5910 5911 5913 5914 5917
5823 5820 5817 5815 5813 5812 5810 5810 5810 5811 5813 5815 5817 5821 5824 5826 5833 5837 5841 5845 5850 5856 5860 5863 5868 5874 5878 5881 5885 5890 5892 5895 5897 5898 5900 5903 5904 5904 5907 5909 5911 5912 5913 5914 5918
5817 5814 5810 5808 5806 5804 5803 5802 5803 5804 5805 5807 5811 5814 5818 5822 5826 5830 5835 5839 5844 5852 5856 5859 5865 5870 5874 5880 5883 5887 5892 5893 5896 5897 5900 5901 5900 5904 5906 5909 5911 5912 5914 5915 5917
5810 5807 5804 5800 5798 5797 5796 5795 5795 5796 5797 5799 5804 5808 5811 5817 5819 5823 5829 5834 5839 5845 5850 5855 5863 5867 5873 5877 5882 5885 5889 5892 5896 5897 5897 5899 5898 5902 5905 5907 5911 5912 5915 5915 5918
5805 5801 5796 5793 5789 5786 5786 5788 5787 5789 5790 5792 5796 5802 5804 5809 5813 5815 5822 5828 5834 5839 5845 5851 5857 5863 5869 5876 5881 5884 5886 5888 5892 5895 5896 5899 5898 5901 5906 5908 5910 5912 5914 5915 5917
5798 5795 5791 5787 5783 5781 5779 5778 5780 5781 5781 5784 5788 5792 5798 5802 5807 5812 5816 5821 5828 5833 5839 5846 5852 5860 5869 5872 5875 5879 5883 5884 5890 5894 5895 5894 5896 5900 5904 5907 5910 5913 5914 5915 5915
5791 5788 5784 5781 5779 5775 5772 5768 5768 5771 5773 5775 5780 5784 5790 5796 5800 5806 5812 5818 5823 5828 5834 5840 5849 5857 5862 5867 5870 5875 5878 5882 5886 5891 5892 5883 5890 5895 5902 5906 5909 5912 5914 5915 5916
5785 5782 5779 5776 5772 5769 5767 5763 5761 5762 5765 5768 5773 5777 5785 5790 5793 5800 5808 5813 5818 5823 5831 5839 5847 5849 5854 5862 5866 5871 5874 5879 5882 5886 5887 5886 5890 5890 5899 5903 5907 5912 5914 5917 5917
5780 5777 5775 5772 5769 5766 5764 5761 5759 5758 5760 5763 5766 5772 5777 5782 5788 5792 5799 5808 5813 5819 5826 5833 5838 5842 5849 5855 5862 5868 5870 5873 5877 5882 5884 5886 5889 5891 5897 5901 5904 5908 5914 5917 5918
5776 5773 5771 5767 5765 5764 5763 5760 5758 5757 5755 5757 5759 5762 5768 5776 5780 5786 5791 5799 5806 5814 5822 5828 5832 5837 5844 5852 5858 5865 5865 5867 5872 5876 5880 5885 5889 5893 5896 5900 5903 5906 5908 5912 5915
5773 5770 5768 5765 5763 5762 5760 5758 5756 5756 5754 5754 5755 5759 5764 5767 5773 5777 5785 5792 5800 5807 5815 5822 5827 5833 5838 5845 5853 5858 5860 5862 5868 5871 5874 5883 5889 5892 5894 5896 5899 5901 5906 5909 5910
5770 5768 5766 5763 5762 5760 5758 5757 5756 5754 5755 5756 5755 5758 5762 5762 5765 5771 5777 5785 5793 5801 5809 5816 5822 5828 5834 5839 5845 5850 5854 5858 5864 5865 5872 5878 5882 5890 5890 5893 5896 5898 5901 5904 5907
5767 5766 5764 5761 5759 5758 5757 5756 5754 5754 5753 5753 5754 5756 5759 5762 5764 5766 5770 5779 5786 5795 5804 5812 5817 5823 5829 5834 5841 5846 5850 5854 5856 5862 5869 5874 5877 5886 5888 5890 5893 5897 5901 5902 5904
5765 5764 5762 5760 5758 5758 5757 5756 5755 5754 5752 5751 5754 5755 5755 5758 5762 5764 5767 5773 5781 5789 5799 5806 5812 5819 5824 5829 5835 5841 5844 5853 5854 5859 5864 5867 5874 5881 5884 5888 5892 5896 5899 5900 5902
5764 5763 5761 5759 5757 5756 5756 5756 5754 5753 5751 5751 5753 5754 5754 5755 5759 5762 5766 5771 5777 5785 5792 5799 5807 5813 5818 5823 5828 5835 5842 5845 5848 5853 5857 5861 5870 5876 5880 5885 5889 5893 5895 5897 5899
5762 5761 5760 5757 5756 5755 5755 5754 5753 5751 5750 5750 5751 5753 5753 5755 5758 5761 5764 5770 5774 5780 5787 5794 5801 5808 5813 5817 5823 5830 5834 5840 5845 5850 5853 5858 5866 5874 5878 5882 5885 5889 5892 5893 5895
5760 5759 5758 5757 5756 5755 5753 5752 5750 5749 5748 5748 5750 5752 5754 5756 5757 5759 5764 5767 5771 5777 5783 5790 5796 5802 5807 5812 5819 5824 5829 5834 5839 5845 5849 5853 5860 5868 5874 5878 5882 5885 5887 5889 5890
5758 5757 5756 5756 5756 5755 5753 5751 5748 5746 5747 5747 5749 5751 5753 5753 5757 5761 5763 5767 5770 5775 5780 5786 5791 5796 5801 5809 5814 5818 5823 5828 5834 5840 5844 5849 5855 5863 5868 5874 5878 5881 5883 5885 5888
5756 5757 5757 5757 5756 5755 5752 5751 5748 5746 5745 5746 5746 5747 5752 5752 5755 5758 5762 5767 5770 5773 5778 5784 5788 5793 5799 5802 5808 5813 5818 5824 5830 5836 5840 5844 5850 5856 5862 5868 5873 5876 5879 5882 5885
5754 5755 5756 5756 5754 5753 5751 5749 5748 5745 5744 5744 5744 5744 5748 5751 5754 5756 5760 5764 5768 5772 5775 5780 5785 5790 5794 5799 5805 5809 5815 5819 5825 5829 5834 5839 5844 5850 5854 5859 5865 5871 5874 5877 5879
5752 5753 5755 5755 5753 5752 5751 5750 5749 5745 5743 5743 5743 5744 5745 5747 5750 5752 5756 5759 5763 5770 5773 5776 5779 5786 5791 5796 5800 5805 5810 5816 5821 5824 5828 5832 5837 5841 5846 5850 5856 5862 5868 5871 5873
5749 5752 5753 5753 5752 5752 5751 5750 5748 5745 5744 5742 5742 5742 5743 5745 5747 5749 5753 5757 5760 5766 5770 5773 5777 5781 5784 5791 5794 5801 5805 5809 5814 5818 5822 5825 5828 5832 5837 5842 5847 5853 5857 5862 5865